Regional Weather Roundup
Issued by NWS

Home | Current Version | Previous Version | Text Only | Print | Product List | Glossary Off
Versions: 1 2 3 4 5 6 7 8 9 10 11 12 13 14 15 16 17 18 19 20 21 22 23 24 25 26 27 28 29 30 31 32 33 34 35 36 37 38 39 40 41 42 43 44 45 46 47 48 49 50

000
ASUS45 KTFX 291004
RWRMT
MONTANA HOURLY WEATHER ROUNDUP
NATIONAL WEATHER SERVICE GREAT FALLS MT
304 AM MST THU JAN 29 2015

NOTE: "FAIR" INDICATES FEW OR NO CLOUDS BELOW 12000 FEET WITH NO
SIGNIFICANT WEATHER AND/OR OBSTRUCTIONS TO VISIBILITY.

* THESE STATIONS ARE NOT UNDER NWS QUALITY CONTROL. THEY DO NOT
   REPORT WEATHER SUCH AS PRECIPITATION OR FOG.

MTZ001>007-043-291100-
WEST OF THE DIVIDE
CITY           SKY/WX    TMP DP  RH WIND       PRES   REMARKS
KALISPELL      FOG       14  10  84 CALM      30.44S VSB 1/2
MISSOULA       PTCLDY    27  23  85 CALM      30.46S
BUTTE          PTCLDY    19  18  96 SE3       30.40S
MULLAN PASS    CLEAR     27  23  85 S5        30.35S WCI  21
* ANACONDA     PTCLDY    25  18  75 SW6        N/A   WCI  18
* ESSEX        N/A       19  17  92 N/A        N/A
* LINCOLN      N/A       16  14  92 N/A        N/A
* LOOKOUT PASS N/A       24  24 100 S2         N/A
* POLSON       N/A       27  24  88 N/A        N/A
* RONAN APT    CLEAR     25  21  85 N/A        N/A
* SEELEY LAKE  N/A       14  12  92 NE2        N/A
* THOMP F APT  CLEAR     26  23  88 N4         N/A
$$

MTZ008-052>055-291100-
SOUTHWEST MONTANA
CITY           SKY/WX    TMP DP  RH WIND       PRES   REMARKS
BOZEMAN        CLEAR     25  19  78 CALM      30.42R
DILLON         PTCLDY    25  19  78 S13       30.40R WCI  13
* W YELLOWSTON CLEAR     27  26  96 N/A        N/A
* THREE FORKS  CLEAR     23  23 100 N/A        N/A
* BOULDER HILL N/A       25  16  69 S8         N/A   WCI  16
* MONIDA PASS  N/A       23  23 100 N/A        N/A
* RAYNOLDS PAS N/A       27  15  61 SW2        N/A
* WHITEHALL    N/A       23  19  85 N/A        N/A
* WISE RIVER   N/A       19  16  88 W3         N/A
$$

MTZ009>010-012-014-046-048-049-054-291100-
EAST SLOPES AND CENTRAL MONTANA
CITY           SKY/WX    TMP DP  RH WIND       PRES   REMARKS
CUT BANK       CLEAR     23  21  92 N3        30.33S
GREAT FALLS    CLEAR     23  19  85 S7        30.35S WCI  15
HELENA         CLEAR     28  21  75 CALM      30.40S
MALMSTROM AFB  CLEAR     28  27  96 W6        30.37R WCI  21
* DEARBORN     N/A       27  24  88 SW4        N/A
* EAST GLACIER N/A       32  23  69 W16        N/A   WCI  21
* MONARCH      N/A       24  19  81 N/A        N/A
* PENDROY      N/A       26  23  88 W2         N/A
* ROGERS PASS  N/A       28  20  72 SE12G18    N/A   WCI  18
* SWEET GRASS  N/A       27  27 100 S12        N/A   WCI  16
$$

MTZ011-013-016-021-035-040-045-047-050-051-291100-
NORTH CENTRAL MONTANA
CITY           SKY/WX    TMP DP  RH WIND       PRES   REMARKS
HAVRE          CLEAR     25  21  85 E6        30.40S WCI  18
LEWISTOWN      CLEAR     25  21  85 SE7       30.38S WCI  17
* N BAR RANCH  CLEAR     25  21  85 NW6       30.39S WCI  18
* CHESTER      N/A       24  22  92 W1         N/A
* DENTON       N/A       25  24  96 SE11       N/A   WCI  14
* GEYSER       N/A       23  21  92 S6         N/A   WCI  16
* JUDITH GAP   N/A       24  23  96 S5         N/A   WCI  18
* LOMA         N/A       26  26 100 NE5        N/A   WCI  20
$$

MTZ017>020-022>027-061-062-291100-
NORTHEAST MONTANA
CITY           SKY/WX    TMP DP  RH WIND       PRES   REMARKS
GLASGOW        FOG       23  21  92 NW6       30.42S WCI  16
GLENDIVE       CLEAR     27  21  78 NW8       30.41S WCI  19
JORDAN         CLEAR     21  19  92 W6        30.43R WCI  13
SIDNEY         CLOUDY    28  21  75 NW12      30.44S WCI  18
WOLF POINT     CLOUDY    28  23  81 NW7       30.45R WCI  21
* BEAVER HILL  N/A       27  24  88 W10        N/A   WCI  18
* CIRCLE       N/A       25  23  92 N/A        N/A
* LINDSAY DVD  N/A       25  23  92 W12        N/A   WCI  14
* NAVAJO       N/A       22  19  88 NW13G18    N/A   WCI  10
* SACO         N/A       22  20  92 S4         N/A
$$

MTZ028>042-056>058-291100-
SOUTHCENTRAL AND SOUTHEAST MONTANA
CITY           SKY/WX    TMP DP  RH WIND       PRES   REMARKS
BAKER          CLOUDY    28  25  89 NW10      30.40S WCI  19
BILLINGS       CLEAR     34  27  76 S6        30.42S WCI  29
LIVINGSTON     CLEAR     25  19  78 W3        30.40R
MILES CITY     CLEAR     25  21  85 W7        30.44R WCI  17
* LAUREL APT   CLEAR     28  18  66 N/A        N/A
* ROUNDUP APT  CLEAR     25  19  78 N/A        N/A
* ALZADA       N/A       27  25  92 W7         N/A   WCI  19
* HYSHAM       N/A       31  28  89 W2         N/A
* LAME DEER    N/A       28  25  89 W7         N/A   WCI  21
* REED POINT   N/A       24  23  96 NW2        N/A
$$

REGIONAL REPORTS...DAKOTAS
CITY           SKY/WX    TMP DP  RH WIND       PRES   REMARKS
WILLISTON      CLOUDY    27  19  72 NW10      30.41R WCI  18
DICKINSON      CLOUDY    30  21  69 NW20      30.33R WCI  17
CROSBY         CLOUDY    25  23  92 NW15      30.39R WCI  13
WATFORD CITY   CLOUDY    27  21  78 NW13      30.38R WCI  16
BISMARCK       CLOUDY    30  25  82 N15       30.33R WCI  19
GRAND FORKS    CLOUDY    19  12  74 N18G33    30.27R WCI   4
FARGO          LGT SNOW  25  19  78 N25G36    30.22R WCI   9
BUFFALO SD     PTCLDY    30  23  75 NW22      30.31R WCI  17
RAPID CITY     FAIR      34  25  70 N23G33    30.36S WCI  22
$$

REGIONAL REPORTS...WYOMING/IDAHO/WASHINGTON
CITY           SKY/WX    TMP DP  RH WIND       PRES   REMARKS
GILLETTE       CLEAR     25  19  78 NW6       30.42R WCI  18
SHERIDAN       CLEAR     27  21  78 S6        30.43R WCI  20
CODY           PTCLDY    30  28  92 CALM      30.40S
YELLOWSTONE LA PTCLDY    21  18  88 CALM      30.42R
SALMON         CLOUDY    18  16  92 CALM      30.47R VSB 1/2
MULLAN PASS    CLEAR     27  23  85 S5        30.35S WCI  21
SAND POINT     FOG       32  32 100 CALM      30.47S VSB 1
SPOKANE        FOG       32  32 100 NE8       30.43R VSB M1/4 WCI  25

$$




USA.gov is the U.S. government's official web portal to all federal, state and local government web resources and services.